FW4829 Weather Reports


time (UTC)temp
F
wind
direction
speed
knots
gust
knots
rain 1hr
in
rain 24hr
in
rain mn
in
humidity
%
barometer
mb
20260505051504 57 17 0.0 2.6 0.00 0.00 0.00 86 1012.6
20260505041603 61 14 0.9 1.7 0.00 0.00 0.00 80 1012.2
20260505040057 62 65 0.0 3.5 0.00 0.00 0.00 79 1011.8
20260505034552 63 42 0.0 3.5 0.00 0.00 0.00 78 1011.6
20260505033051 65 60 1.7 4.3 0.00 0.00 0.00 75 1011.4
20260505031552 68 358 1.7 3.5 0.00 0.00 0.00 75 1011.2
20260505030108 69 261 0.0 1.7 0.00 0.00 0.00 73 1011.1
20260505024550 70 231 0.0 3.5 0.00 0.00 0.00 71 1011.0
20260505023045 72 179 0.9 3.5 0.00 0.00 0.00 68 1010.8
20260505021543 73 216 0.9 3.5 0.00 0.00 0.00 66 1010.8
20260505020043 73 210 0.9 4.3 0.00 0.00 0.00 67 1010.9
20260505014601 73 173 0.9 3.5 0.00 0.00 0.00 66 1010.8
20260505013048 73 215 0.0 5.2 0.00 0.00 0.00 67 1010.9
20260505011541 73 261 1.7 6.1 0.00 0.00 0.00 67 1011.0
20260505010039 73 177 0.9 5.2 0.00 0.00 0.00 66 1010.9
20260505004545 73 229 0.9 3.5 0.00 0.00 0.00 65 1011.1
20260505003050 73 260 1.7 4.3 0.00 0.00 0.00 63 1010.9
20260505001526 73 202 0.9 6.1 0.00 0.00 0.00 65 1011.0
20260505000030 72 236 1.7 8.7 0.00 0.00 0.00 66 1011.2
20260504234621 71 182 2.6 6.1 0.00 0.00 0.00 66 1011.2
20260504233022 72 101 0.9 4.3 0.00 0.00 0.00 64 1011.2
20260504231518 71 208 0.9 4.3 0.00 0.00 0.00 66 1011.3
20260504230015 71 207 1.7 5.2 0.00 0.00 0.00 67 1011.4
20260504224517 71 221 1.7 7.0 0.00 0.00 0.00 67 1011.5
20260504223014 69 238 1.7 6.1 0.00 0.00 0.00 68 1011.9
20260504221508 69 233 0.9 6.1 0.00 0.00 0.00 69 1012.1
20260504220006 68 272 1.7 6.1 0.00 0.00 0.00 69 1012.2
20260504214504 68 262 0.9 6.1 0.00 0.00 0.00 70 1012.2
20260504213006 66 288 1.7 7.0 0.00 0.00 0.00 70 1012.4
20260504211652 66 207 0.9 6.1 0.00 0.00 0.00 71 1012.6
20260504210057 65 186 0.9 7.0 0.00 0.00 0.00 73 1012.8
20260504204556 65 98 2.6 7.0 0.00 0.00 0.00 72 1012.8
20260504203053 64 130 1.7 5.2 0.00 0.00 0.00 74 1013.0
20260504201555 64 151 1.7 6.1 0.00 0.00 0.00 75 1013.0
20260504200052 62 229 2.6 6.1 0.00 0.00 0.00 76 1013.2
20260504194551 62 136 2.6 6.1 0.00 0.00 0.00 76 1013.2
20260504193045 61 72 0.9 6.1 0.00 0.00 0.00 78 1013.2
20260504191641 61 209 1.7 6.1 0.00 0.00 0.00 79 1013.3
20260504190044 60 177 0.0 6.1 0.00 0.00 0.00 81 1013.3
20260504184546 59 148 2.6 7.8 0.00 0.00 0.00 81 1013.5
20260504183035 58 219 3.5 6.1 0.00 0.00 0.00 82 1013.3
20260504181535 58 194 1.7 6.1 0.00 0.00 0.00 83 1013.3
20260504180032 57 148 3.5 8.7 0.00 0.00 0.00 82 1013.3
20260504174528 56 108 2.6 7.8 0.00 0.00 0.00 84 1013.4
20260504173026 56 199 1.7 7.0 0.00 0.00 0.00 85 1013.4
20260504171523 56 194 1.7 6.1 0.00 0.00 0.00 85 1013.2
20260504081556 72 51 3.5 9.6 0.00 0.00 0.00 44 1008.7